ICEYE-X1 (43114 NORAD) Tracking and Keplerian Element Data

This shows tracking and keplerian element data for the satellite.

Feedback or suggestion? Click here.




ElementValue
Catalog43114
NameICEYE-X1
Epoch Orbit26178
Epoch Day270.1654397
Epoch Year2022
RAAN342.226
Inclination97.3563
Eccentricity0.000771
Argument of Perigee0.7887
Mean Anonmoly359.3364
Mean Motion15.30299611
Decay Rate0.00013169
L11 43114U 18004D 22270.16543970 .00013169 00000+0 45122-3 0 9990
L22 43114 97.3563 342.2260 0007710 0.7887 359.3364 15.30299611261786

Live tracking and technical data element details for ICEYE-X1 (NORAD 43114). ICEYE-X1 can be tracked NOW for your location showing map with azimuth and elevation plus other details from your city location.

Track the satellite on the map from your city or location and see movement details for azimuth, elevation, latitude, longitude, range, height, and movement on the map or in text.







IsCatalogInMostPopularTable: catalog: 43114, numindb: 791
Update: records affected: 1



GetName: 43114 ICEYE-X1

Hit Count: updated at: Fri, 30 Sep 2022 03:38:28 GMT